Weather History for Palacios, TX

Change the Weather History Date:

Monday, January 7, 2013

  Actual Average Record
Temperature  
Mean Temperature 50 °F -  
Max Temperature 64 °F 59 °F 75 °F (1965)
Min Temperature 36 °F 43 °F 21 °F (1970)
Degree Days  
Heating Degree Days 15    
Moisture  
Dew Point 43 °F    
Average Humidity 78    
Maximum Humidity 89    
Minimum Humidity 58    
Precipitation  
Precipitation 0.00 in - - ()
Sea Level Pressure  
Sea Level Pressure 30.19 in    
Wind  
Wind Speed 8 mph (NE)    
Max Wind Speed 15 mph    
Max Gust Speed -    
Visibility 9 miles    
Events      
Averages and records for this station are not official NWS values.
T = Trace of Precipitation, MM = Missing Value Source: NWS Daily Summary

Daily Weather History Graph

Daily Weather History Graph

Search for Another Location

Airport:

Trip Planner

Search our weather history database for the weather conditions in past years. The results will help you decide how hot, cold, wet, or windy it might be!

Date:

Astronomy

Jan. 07, 2013 Rise Set
Actual Time 7:19 AM CST 5:43 PM CST
Civil Twilight 6:53 AM CST 6:09 PM CST
Nautical Twilight 6:24 AM CST 6:38 PM CST
Astronomical Twilight 5:55 AM CST 7:07 PM CST
Moon 2:49 AM CST (1/7) 1:52 PM CST (1/7)
Length of Visible Light 11h 16m
Length of Day
10h 24m
Waning Crescent, 22% of the Moon is Illuminated
Jan 7
Waning Crescent
Jan 11
New
Jan 18
First Quarter
Jan 26
Full
Feb 3
Last Quarter

Hourly Weather History & Observations

Time (CST) Temp. Windchill Dew Point Humidity Pressure Visibility Wind Dir Wind Speed Gust Speed Precip Events Conditions
12:53 AM 39.9 °F 36.7 °F 36.0 °F 86% 30.31 in 9.0 mi NNW 4.6 mph - N/A   Clear
1:53 AM 39.0 °F 34.8 °F 35.1 °F 86% 30.30 in 8.0 mi North 5.8 mph - N/A   Clear
2:53 AM 39.0 °F 35.7 °F 35.1 °F 86% 30.29 in 8.0 mi NNW 4.6 mph - N/A   Clear
3:53 AM 36.0 °F 31.1 °F 33.1 °F 89% 30.29 in 7.0 mi North 5.8 mph - N/A   Clear
4:53 AM 36.0 °F 30.3 °F 33.1 °F 89% 30.27 in 6.0 mi NNE 6.9 mph - N/A   Clear
5:53 AM 36.0 °F 30.3 °F 33.1 °F 89% 30.25 in 5.0 mi NE 6.9 mph - N/A   Clear
6:53 AM 37.0 °F 31.0 °F 34.0 °F 89% 30.26 in 5.0 mi North 8.1 mph - N/A   Clear
7:53 AM 41.0 °F 37.1 °F 37.9 °F 89% 30.27 in 3.0 mi NNE 5.8 mph - N/A   Clear
8:53 AM 46.9 °F - 42.1 °F 83% 30.27 in 7.0 mi NE 8.1 mph - N/A   Clear
9:53 AM 50.0 °F - 44.1 °F 80% 30.28 in 9.0 mi NE 9.2 mph - N/A   Clear
10:53 AM 57.0 °F - 46.9 °F 69% 30.26 in 10.0 mi ENE 11.5 mph - N/A   Clear
12:53 PM 62.6 °F - 48.2 °F 59% 30.19 in 10.0 mi ESE 6.9 mph - N/A   Clear
1:53 PM 64.0 °F - 48.9 °F 58% 30.15 in 10.0 mi East 10.4 mph - N/A   Partly Cloudy
2:53 PM 64.9 °F - 50.0 °F 58% 30.14 in 10.0 mi East 12.7 mph - N/A   Clear
3:53 PM 63.0 °F - 50.0 °F 63% 30.12 in 10.0 mi East 12.7 mph - N/A   Scattered Clouds
4:53 PM 60.8 °F - 50.0 °F 68% 30.12 in 10.0 mi ENE 12.7 mph - N/A   Partly Cloudy
5:53 PM 57.9 °F - 50.0 °F 75% 30.12 in 10.0 mi East 11.5 mph - N/A   Partly Cloudy
6:53 PM 55.9 °F - 48.0 °F 75% 30.09 in 10.0 mi ENE 15.0 mph - N/A   Clear
7:53 PM 54.0 °F - 48.0 °F 80% 30.13 in 10.0 mi NE 12.7 mph - N/A   Overcast
8:39 PM 53.6 °F - 46.4 °F 77% 30.12 in 10.0 mi ENE 11.5 mph - N/A   Overcast
8:53 PM 54.0 °F - 46.9 °F 77% 30.12 in 10.0 mi ENE 10.4 mph - N/A   Overcast
9:53 PM 54.0 °F - 46.9 °F 77% 30.09 in 10.0 mi ENE 12.7 mph - N/A   Overcast
10:53 PM 55.0 °F - 50.0 °F 83% 30.07 in 10.0 mi ENE 10.4 mph - N/A   Overcast
11:53 PM 55.9 °F - 50.0 °F 80% 30.06 in 10.0 mi NE 10.4 mph - N/A   Overcast